SL-12 R/B(2), 25927

Orbit data source: Space-Track

SL-12 R/B(2), 25927 is space debris in HEO originally from a launch on Sun, 26 Sep 1999 UTC launched from the Tyuratam Missile And Space Complex (TTMTR). Debris objects in space refer to the collection of defunct objects orbiting the Earth. Examples of debris include non-operational satellites, rocket bodies, and fragments generated from explosions, collisions, or faulty payload assembly.

Loading next visibility...
SL-12 R/B(2) details
Identifier
25927, 1999-053D
Orbit
HEO
Last TLE update16 hours ago
Origin
Flag of CISKhrunichev (CIS)
ManufacturerRKKE
MissionSpacecraft
Bus & MotorBLOK DM2, Unknown motor
Mass2,560 kg wet, 2,560 kg dry
Launch date (UTC)
1999-09-26 (25 years ago)
Launch vehicleUnknown
Launch site
Tyuratam Missile And Space Complex (TTMTR)
Object type
Payload
Rocket body
Debris
Shape & HBRCyl + 1 Nozzle, 6.3 m
Radar Cross Section23.684 m², Large (>1 m²)

Expand to show TLE details & history

TLE from 16 hours ago
0 SL-12 R/B(2)
1 25927U 99053D   25035.47961487 -.00000053  00000-0  00000-0 0  9991
2 25927  17.7703   7.2906 5323688 180.0515 183.2693  1.89347298175007
Epoch: 2025-02-04T11:30Z
Definitive object data (Epoch: 2025-02-04T11:30:38.724Z)
Latitude0.3559°
Longitude60.86121°
Altitude35,894.681 km
Speed2.102 km/s
True Right ascension00h 33m 37s
True Declination0° 21' 20"
Sunlit
Object was in daylight at TLE epoch
Visualization TLE readout
Latitude13.45463°
Longitude107.88395°
Altitude23,844.045 km
Speed3.455 km/s
Apparent Right ascension03h 17m 04s
Apparent Declination6° 36' 30"
Sunlit
Object is in daylight
Visualization observer readout
Local Sidereal Time05:57:24
Azimuth238.015° WSW
Elevation41.056°
Doppler factor1
Orbital elements
Apogee altitude35,917.439 km
Perigee altitude6,529.155 km
Semi-major axis27,601.434 km
Eccentricity0.5323688
Inclination17.7703°
RAAN7.2906°
Arg. of periapsis180.0515°
True anomaly181.17878°
Mean anomaly183.2693°
Eccentric anomaly182.13367°
Mean motion0.47331 °/min
BSTARUnknown
Orbital period760.6 mins
Loading maneuver chart data...
Loading historical data...
Loading historical data...
Loading historical data...
Loading historical data...
Loading historical data...
Loading historical data...
Loading historical data...
Other satellites on launch #53 in the year 1999 (1999-09-26 UTC)

SL-12 R/B(2) Visibility forecast

Observer location: undefined°, undefined

Span
Click to sort rows by Start time (UTC) header in descending order
Start Az.
Max El. time (UTC)
Max El. Az.
Max El.
End time (UTC)
End Az.
136 mins2025-02-05 03:55:38.483Z237.989° WSW2025-02-05 05:26:38.483Z194.506° SSW39.607°2025-02-05 06:11:38.483Z119.66° SE
411 mins2025-02-05 21:04:38.483Z221.558° SW2025-02-06 00:25:38.483Z230.482° WSW23.322°2025-02-06 03:55:38.483Z253.539° W
|